Weather History for Macon, GA

Change the Weather History Date:

Friday, July 12, 2013

  Actual Average Record
Temperature  
Mean Temperature 81 °F 82 °F  
Max Temperature 89 °F 93 °F 105 °F (1980)
Min Temperature 72 °F 71 °F 61 °F (1953)
Degree Days  
Heating Degree Days 0 0  
Month to date heating degree days 0 0  
Since 1 June heating degree days 0 0  
Since 1 July heating degree days 0 0  
Cooling Degree Days 16 17  
Month to date cooling degree days 169 198  
Year to date cooling degree days 775 930  
Since 1 June cooling degree days 565 617  
Growing Degree Days 30 (Base 50)    
Moisture  
Dew Point 73 °F    
Average Humidity 80    
Maximum Humidity 100    
Minimum Humidity 59    
Precipitation  
Precipitation 0.06 in 0.17 in 1.93 in (1965)
Month to date precipitation 5.19 1.93  
Year to date precipitation 46.13 24.82  
Sea Level Pressure  
Sea Level Pressure 29.89 in    
Wind  
Wind Speed 3 mph (ENE)    
Max Wind Speed 10 mph    
Max Gust Speed 17 mph    
Visibility 8 miles    
Events Rain    
T = Trace of Precipitation, MM = Missing Value Source: NWS Daily Summary

Daily Weather History Graph

Daily Weather History Graph

Search for Another Location

Airport:

Trip Planner

Search our weather history database for the weather conditions in past years. The results will help you decide how hot, cold, wet, or windy it might be!

Date:

Astronomy

Jul. 12, 2013 Rise Set
Actual Time 6:36 AM EDT 8:44 PM EDT
Civil Twilight 6:07 AM EDT 9:12 PM EDT
Nautical Twilight 5:33 AM EDT 9:46 PM EDT
Astronomical Twilight 4:56 AM EDT 10:23 PM EDT
Moon 10:35 AM EDT (7/12) 11:12 PM EDT (7/12)
Length of Visible Light 15h 04m
Length of Day
14h 08m
Waxing Crescent, 17% of the Moon is Illuminated
Jul 12
Waxing Crescent
Jul 15
First Quarter
Jul 22
Full
Jul 29
Last Quarter
Aug 6
New

Hourly Weather History & Observations

Time (EDT) Temp. Heat Index Dew Point Humidity Pressure Visibility Wind Dir Wind Speed Gust Speed Precip Events Conditions
12:53 AM 73.0 °F - 73.0 °F 100% 29.90 in 7.0 mi Calm Calm - N/A   Overcast
1:20 AM 73.4 °F - 73.4 °F 100% 29.91 in 8.0 mi Calm Calm - N/A   Overcast
1:31 AM 73.4 °F - 73.4 °F 100% 29.91 in 7.0 mi Calm Calm - N/A   Overcast
1:42 AM 73.4 °F - 73.4 °F 100% 29.91 in 7.0 mi Calm Calm - N/A   Overcast
1:53 AM 73.0 °F - 73.0 °F 100% 29.89 in 7.0 mi Calm Calm - N/A   Overcast
2:30 AM 73.4 °F - 73.4 °F 100% 29.89 in 7.0 mi Calm Calm - N/A   Overcast
2:43 AM 73.4 °F - 71.6 °F 94% 29.89 in 8.0 mi Calm Calm - N/A   Overcast
2:53 AM 73.0 °F - 72.0 °F 96% 29.88 in 8.0 mi Calm Calm - N/A   Overcast
3:11 AM 73.4 °F - 73.4 °F 100% 29.90 in 8.0 mi Calm Calm - N/A   Overcast
3:49 AM 73.4 °F - 73.4 °F 100% 29.89 in 2.5 mi Calm Calm - 0.02 in Rain Rain
3:53 AM 73.0 °F - 73.0 °F 100% 29.88 in 2.0 mi Calm Calm - 0.04 in Rain Heavy Rain
4:01 AM 73.4 °F - 71.6 °F 94% 29.89 in 3.0 mi Calm Calm - 0.02 in Rain Light Rain
4:17 AM 73.4 °F - 73.4 °F 100% 29.88 in 6.0 mi Calm Calm - 0.02 in   Overcast
4:34 AM 73.4 °F - 73.4 °F 100% 29.88 in 6.0 mi Calm Calm - 0.02 in   Overcast
4:41 AM 73.4 °F - 71.6 °F 94% 29.88 in 7.0 mi ENE 3.5 mph - 0.02 in   Overcast
4:49 AM 73.4 °F - 71.6 °F 94% 29.87 in 7.0 mi Calm Calm - 0.02 in   Overcast
4:53 AM 73.0 °F - 73.0 °F 100% 29.86 in 7.0 mi Calm Calm - 0.02 in   Overcast
5:25 AM 73.4 °F - 73.4 °F 100% 29.87 in 6.0 mi Calm Calm - N/A   Overcast
5:53 AM 73.0 °F - 72.0 °F 96% 29.87 in 7.0 mi Calm Calm - N/A   Overcast
6:18 AM 73.4 °F - 73.4 °F 100% 29.90 in 6.0 mi Calm Calm - N/A   Overcast
6:31 AM 73.4 °F - 73.4 °F 100% 29.90 in 6.0 mi ENE 3.5 mph - N/A   Overcast
6:39 AM 73.4 °F - 73.4 °F 100% 29.90 in 5.0 mi NE 3.5 mph - N/A   Overcast
6:53 AM 73.0 °F - 72.0 °F 96% 29.89 in 6.0 mi East 3.5 mph - N/A   Overcast
7:16 AM 73.4 °F - 73.4 °F 100% 29.91 in 5.0 mi NE 3.5 mph - N/A   Overcast
7:24 AM 73.4 °F - 71.6 °F 94% 29.91 in 6.0 mi NE 4.6 mph - N/A   Overcast
7:53 AM 73.0 °F - 72.0 °F 96% 29.91 in 5.0 mi ENE 5.8 mph - N/A   Mostly Cloudy
8:05 AM 73.4 °F - 71.6 °F 94% 29.92 in 5.0 mi NE 3.5 mph - N/A   Overcast
8:53 AM 75.0 °F - 73.0 °F 94% 29.90 in 10.0 mi North 3.5 mph - N/A   Overcast
9:00 AM 75.2 °F - 73.4 °F 94% 29.91 in 10.0 mi North 4.6 mph - N/A   Scattered Clouds
9:34 AM 78.8 °F - 73.4 °F 83% 29.91 in 10.0 mi NNE 3.5 mph - N/A   Mostly Cloudy
9:53 AM 77.0 °F - 72.0 °F 84% 29.90 in 10.0 mi Calm Calm - N/A   Mostly Cloudy
10:25 AM 78.8 °F - 71.6 °F 78% 29.92 in 10.0 mi Calm Calm - N/A   Overcast
10:53 AM 78.1 °F - 71.1 °F 79% 29.91 in 10.0 mi Calm Calm - N/A   Overcast
11:49 AM 82.4 °F 88.2 °F 73.4 °F 74% 29.92 in 10.0 mi NNE 3.5 mph - N/A   Overcast
11:53 AM 82.0 °F 86.7 °F 72.0 °F 71% 29.91 in 10.0 mi Calm Calm - N/A   Mostly Cloudy
12:07 PM 80.6 °F 84.6 °F 71.6 °F 74% 29.92 in 10.0 mi Variable 3.5 mph - N/A   Overcast
12:21 PM 82.4 °F 87.2 °F 71.6 °F 70% 29.91 in 10.0 mi East 3.5 mph - N/A   Overcast
12:53 PM 84.0 °F 89.6 °F 72.0 °F 67% 29.90 in 10.0 mi Variable 3.5 mph - N/A   Mostly Cloudy
1:53 PM 84.9 °F 90.1 °F 71.1 °F 63% 29.89 in 10.0 mi Variable 5.8 mph - N/A   Mostly Cloudy
2:53 PM 86.0 °F 91.5 °F 71.1 °F 61% 29.88 in 10.0 mi Calm Calm - N/A   Partly Cloudy
3:53 PM 88.0 °F 94.7 °F 72.0 °F 59% 29.86 in 10.0 mi East 6.9 mph - N/A   Clear
4:53 PM 87.1 °F 92.8 °F 71.1 °F 59% 29.86 in 10.0 mi East 6.9 mph - N/A   Mostly Cloudy
5:53 PM 86.0 °F 91.5 °F 71.1 °F 61% 29.85 in 10.0 mi Variable 5.8 mph - N/A   Clear
6:53 PM 82.9 °F 88.8 °F 73.0 °F 72% 29.88 in 10.0 mi East 3.5 mph - N/A   Clear
7:53 PM 79.0 °F - 75.0 °F 88% 29.86 in 10.0 mi SSW 3.5 mph - N/A   Clear
8:53 PM 79.0 °F - 73.9 °F 84% 29.90 in 10.0 mi North 4.6 mph - N/A   Scattered Clouds
9:53 PM 78.1 °F - 73.9 °F 87% 29.88 in 10.0 mi SE 6.9 mph - N/A   Scattered Clouds
10:53 PM 77.0 °F - 73.9 °F 90% 29.90 in 10.0 mi SSW 4.6 mph - N/A   Mostly Cloudy
11:04 PM 77.0 °F - 73.4 °F 89% 29.92 in 10.0 mi Calm Calm - N/A   Mostly Cloudy
11:53 PM 77.0 °F - 75.0 °F 94% 29.92 in 10.0 mi Calm Calm - N/A   Mostly Cloudy